Weather History for KCRX - October, 2012

Change the Weather History Date:

Sunday, October 14, 2012

  Actual Average Record
Temperature  
Mean Temperature 66 °F -  
Max Temperature 73 °F 76 °F 90 °F (1963)
Min Temperature 59 °F 46 °F 30 °F (1987)
Cooling Degree Days 1    
Growing Degree Days 16 (Base 50)    
Moisture  
Dew Point 63 °F    
Average Humidity 82    
Maximum Humidity 100    
Minimum Humidity 65    
Precipitation  
Precipitation 0.30 in - - ()
Sea Level Pressure  
Sea Level Pressure 30.00 in    
Wind  
Wind Speed 10 mph (SSW)    
Max Wind Speed 20 mph    
Max Gust Speed 37 mph    
Visibility 9 miles    
Events Fog , Rain    
Averages and records for this station are not official NWS values.
T = Trace of Precipitation, MM = Missing Value Source: NWS Daily Summary

Daily Weather History Graph

Daily Weather History Graph

Search for Another Location

Airport or City:

Trip Planner

Search our weather history database for the weather conditions in past years. The results will help you decide how hot, cold, wet, or windy it might be!

Date:

Astronomy

Oct. 14, 2012 Rise Set
Actual Time 6:59 AM CDT 6:20 PM CDT
Civil Twilight 6:34 AM CDT 6:45 PM CDT
Nautical Twilight 6:05 AM CDT 7:14 PM CDT
Astronomical Twilight 5:35 AM CDT 7:44 PM CDT
Moon 5:59 AM CDT (10/14) 5:40 PM CDT (10/14)
Length of Visible Light 12h 11m
Length of Day
11h 20m
Waning Crescent, 1% of the Moon is Illuminated
Oct 14
Waning Crescent
Oct 15
New
Oct 21
First Quarter
Oct 29
Full
Nov 6
Last Quarter

Hourly Weather History & Observations

Time (CDT) Temp. Dew Point Humidity Pressure Visibility Wind Dir Wind Speed Gust Speed Precip Events Conditions
12:25 AM 68.0 °F 62.6 °F 83% 30.05 in 10.0 mi SSE 8.1 mph - N/A   Scattered Clouds
12:45 AM 68.0 °F 62.6 °F 83% 30.04 in 10.0 mi SE 8.1 mph - N/A   Partly Cloudy
1:05 AM 68.0 °F 62.6 °F 83% 30.04 in 10.0 mi SSE 10.4 mph - N/A   Clear
1:25 AM 68.0 °F 62.6 °F 83% 30.04 in 10.0 mi SSE 11.5 mph 16.1 mph N/A   Clear
1:45 AM 68.0 °F 62.6 °F 83% 30.03 in 10.0 mi South 10.4 mph - N/A   Clear
2:05 AM 68.0 °F 62.6 °F 83% 30.02 in 10.0 mi SSE 12.7 mph 18.4 mph N/A   Clear
2:25 AM 68.0 °F 62.6 °F 83% 30.02 in 10.0 mi South 12.7 mph 21.9 mph N/A   Clear
2:45 AM 68.0 °F 62.6 °F 83% 30.01 in 10.0 mi South 10.4 mph 17.3 mph N/A   Clear
3:05 AM 68.0 °F 62.6 °F 83% 30.00 in 10.0 mi South 11.5 mph 18.4 mph N/A   Clear
3:25 AM 68.0 °F 62.6 °F 83% 30.00 in 10.0 mi South 10.4 mph 17.3 mph N/A   Partly Cloudy
3:45 AM 68.0 °F 64.4 °F 88% 30.01 in 10.0 mi South 12.7 mph 17.3 mph N/A   Partly Cloudy
4:05 AM 68.0 °F 64.4 °F 88% 30.01 in 10.0 mi South 11.5 mph 18.4 mph N/A   Scattered Clouds
4:25 AM 68.0 °F 64.4 °F 88% 30.02 in 10.0 mi South 10.4 mph - N/A   Mostly Cloudy
4:45 AM 68.0 °F 64.4 °F 88% 30.04 in 9.0 mi South 10.4 mph - N/A   Overcast
5:05 AM 68.0 °F 64.4 °F 88% 30.05 in 10.0 mi SSW 10.4 mph - N/A   Mostly Cloudy
5:25 AM 68.0 °F 64.4 °F 88% 30.05 in 9.0 mi South 11.5 mph 16.1 mph N/A   Partly Cloudy
5:45 AM 68.0 °F 62.6 °F 83% 30.05 in 10.0 mi South 15.0 mph 20.7 mph N/A   Partly Cloudy
6:05 AM 68.0 °F 62.6 °F 83% 30.04 in 9.0 mi South 12.7 mph 17.3 mph N/A   Scattered Clouds
6:25 AM 68.0 °F 62.6 °F 83% 30.06 in 8.0 mi SSW 13.8 mph 27.6 mph N/A   Mostly Cloudy
6:45 AM 68.0 °F 62.6 °F 83% 30.07 in 8.0 mi South 12.7 mph 25.3 mph N/A   Scattered Clouds
7:05 AM 68.0 °F 64.4 °F 88% 30.06 in 8.0 mi South 13.8 mph 17.3 mph N/A   Mostly Cloudy
7:25 AM 68.0 °F 64.4 °F 88% 30.07 in 6.0 mi South 12.7 mph 20.7 mph N/A Rain Light Rain
7:45 AM 68.0 °F 64.4 °F 88% 30.06 in 10.0 mi South 12.7 mph 23.0 mph N/A   Mostly Cloudy
8:05 AM 69.8 °F 64.4 °F 83% 30.06 in 8.0 mi South 12.7 mph 20.7 mph N/A   Mostly Cloudy
8:25 AM 71.6 °F 64.4 °F 78% 30.07 in 8.0 mi SSW 11.5 mph 23.0 mph N/A   Partly Cloudy
8:45 AM 71.6 °F 64.4 °F 78% 30.06 in 9.0 mi South 15.0 mph 20.7 mph N/A   Scattered Clouds
9:05 AM 73.4 °F 64.4 °F 73% 30.06 in 8.0 mi South 13.8 mph 24.2 mph N/A   Partly Cloudy
9:25 AM 68.0 °F 64.4 °F 88% 30.07 in 0.8 mi WSW 19.6 mph 36.8 mph 0.27 in Rain Light Rain
9:45 AM 66.2 °F 62.6 °F 88% 30.07 in 8.0 mi SSW 6.9 mph 18.4 mph 0.30 in Rain Light Rain
10:05 AM 68.0 °F 64.4 °F 88% 30.05 in 10.0 mi SSW 12.7 mph - N/A   Scattered Clouds
10:25 AM 68.0 °F 62.6 °F 83% 30.03 in 10.0 mi South 12.7 mph 17.3 mph N/A   Partly Cloudy
10:45 AM 66.2 °F 62.6 °F 88% 30.01 in 10.0 mi South 15.0 mph 23.0 mph N/A   Scattered Clouds
11:05 AM 68.0 °F 62.6 °F 83% 29.99 in 10.0 mi South 15.0 mph 20.7 mph N/A   Scattered Clouds
11:25 AM 68.0 °F 62.6 °F 83% 29.96 in 10.0 mi South 19.6 mph 25.3 mph N/A   Clear
11:45 AM 68.0 °F 62.6 °F 83% 30.00 in 10.0 mi SSW 9.2 mph 17.3 mph N/A   Partly Cloudy
12:05 PM 68.0 °F 62.6 °F 83% 30.01 in 10.0 mi SW 10.4 mph 19.6 mph N/A   Mostly Cloudy
12:25 PM 69.8 °F 62.6 °F 78% 30.00 in 10.0 mi SSW 11.5 mph 21.9 mph N/A   Mostly Cloudy
12:45 PM 69.8 °F 62.6 °F 78% 30.00 in 10.0 mi SSW 11.5 mph 16.1 mph N/A   Partly Cloudy
1:05 PM 71.6 °F 62.6 °F 73% 29.99 in 10.0 mi SSW 13.8 mph 18.4 mph N/A   Scattered Clouds
1:25 PM 71.6 °F 62.6 °F 73% 29.98 in 10.0 mi SSW 13.8 mph 18.4 mph N/A   Scattered Clouds
1:45 PM 71.6 °F 62.6 °F 73% 29.97 in 10.0 mi SSW 12.7 mph 23.0 mph N/A   Mostly Cloudy
2:05 PM 71.6 °F 62.6 °F 73% 29.95 in 10.0 mi SSW 10.4 mph 19.6 mph N/A   Mostly Cloudy
2:25 PM 73.4 °F 62.6 °F 69% 29.95 in 10.0 mi SW 13.8 mph 20.7 mph N/A   Partly Cloudy
2:45 PM 73.4 °F 62.6 °F 69% 29.94 in 10.0 mi SW 11.5 mph 21.9 mph N/A   Clear
3:05 PM 73.4 °F 60.8 °F 65% 29.95 in 10.0 mi SSW 12.7 mph 19.6 mph N/A   Mostly Cloudy
3:25 PM 73.4 °F 60.8 °F 65% 29.94 in 10.0 mi SSW 10.4 mph - N/A   Mostly Cloudy
3:45 PM 73.4 °F 62.6 °F 69% 29.93 in 10.0 mi SSW 10.4 mph 20.7 mph N/A   Mostly Cloudy
4:05 PM 73.4 °F 62.6 °F 69% 29.93 in 10.0 mi South 9.2 mph - N/A Rain Light Rain
4:25 PM 73.4 °F 62.6 °F 69% 29.94 in 10.0 mi SSW 10.4 mph - N/A   Overcast
4:45 PM 73.4 °F 62.6 °F 69% 29.94 in 10.0 mi SSW 8.1 mph - N/A   Overcast
5:05 PM 73.4 °F 62.6 °F 69% 29.94 in 10.0 mi South 6.9 mph - N/A   Overcast
5:25 PM 71.6 °F 62.6 °F 73% 29.94 in 10.0 mi South 6.9 mph - N/A   Overcast
5:45 PM 71.6 °F 62.6 °F 73% 29.94 in 10.0 mi SW 4.6 mph - N/A   Overcast
6:05 PM 71.6 °F 62.6 °F 73% 29.94 in 10.0 mi South 3.5 mph - N/A   Mostly Cloudy
6:25 PM 71.6 °F 62.6 °F 73% 29.94 in 10.0 mi Calm Calm - N/A   Overcast
6:45 PM 69.8 °F 62.6 °F 78% 29.94 in 10.0 mi Calm Calm - N/A   Overcast
7:05 PM 69.8 °F 64.4 °F 83% 29.94 in 10.0 mi Calm Calm - N/A   Mostly Cloudy
7:25 PM 68.0 °F 62.6 °F 83% 29.94 in 10.0 mi Calm Calm - N/A   Mostly Cloudy
7:45 PM 66.2 °F 62.6 °F 88% 29.95 in 10.0 mi Calm Calm - N/A   Partly Cloudy
8:05 PM 64.4 °F 62.6 °F 94% 29.95 in 10.0 mi SSE 5.8 mph - N/A   Clear
8:25 PM 66.2 °F 62.6 °F 88% 29.96 in 10.0 mi SSW 3.5 mph - N/A   Clear
8:45 PM 62.6 °F 60.8 °F 94% 29.96 in 10.0 mi Calm Calm - N/A   Clear
9:05 PM 64.4 °F 62.6 °F 94% 29.96 in 10.0 mi WSW 3.5 mph - N/A   Partly Cloudy
9:25 PM 62.6 °F 60.8 °F 94% 29.96 in 6.0 mi Calm Calm - N/A   Clear
9:45 PM 62.6 °F 60.8 °F 94% 29.97 in 1.2 mi Calm Calm - N/A   Clear
10:05 PM 62.6 °F 59.0 °F 88% 29.97 in 2.0 mi Calm Calm - N/A   Clear
10:25 PM 60.8 °F 59.0 °F 94% 29.97 in 0.5 mi Calm Calm - N/A Fog Fog
10:45 PM 59.0 °F 59.0 °F 100% 29.97 in 0.5 mi NNW 4.6 mph - N/A Fog Fog
11:05 PM 59.0 °F 57.2 °F 94% 29.97 in 0.8 mi Calm Calm - N/A   Mist
11:25 PM 59.0 °F 59.0 °F 100% 29.97 in 0.5 mi Calm Calm - N/A Fog Fog